Theta_e
310 313 313 314 314 312 311 312 314 313 312 312 315 317 331 336 341 344 347 348 347 345 344 343 343 340 344 348 349 352 351 352 350 352 352 348 343 345 345 345 345 345 348 352
314 314 313 312 312 313 313 312 313 313 314 325 325 332 337 337 341 343 344 342 341 344 348 347 345 345 345 348 349 353 353 353 353 351 353 353 350 345 345 343 344 346 343 347
313 314 312 311 310 312 312 313 321 328 324 323 325 328 327 330 335 338 340 340 339 339 340 345 347 344 344 344 345 346 352 354 355 354 353 354 354 351 347 346 343 347 350 348
310 312 315 310 309 312 315 321 321 321 321 321 321 322 323 324 329 329 333 335 337 336 338 343 342 342 346 343 345 346 346 353 357 357 356 355 354 355 353 351 348 346 350 351
311 311 311 312 310 310 318 320 317 318 318 318 319 324 322 321 322 322 325 329 332 333 332 337 333 335 340 346 348 346 346 346 349 358 358 357 356 355 355 354 353 349 348 353
311 310 314 311 316 315 315 319 316 316 316 316 317 322 321 318 320 321 322 328 328 328 328 329 329 330 335 341 343 344 342 344 346 348 357 358 357 357 356 355 355 354 352 350
310 313 314 313 313 314 316 314 313 313 313 314 315 316 315 317 319 320 323 325 323 325 325 327 325 326 329 332 335 337 342 343 348 350 355 357 357 357 357 357 356 356 355 354
310 310 314 310 313 315 312 309 309 310 310 312 312 314 316 317 318 319 321 323 323 323 324 324 322 323 325 326 327 331 338 341 343 346 355 356 357 357 357 356 357 356 356 357
311 317 309 309 310 308 306 305 306 307 307 309 310 313 314 315 316 318 320 321 322 323 322 321 321 320 322 323 325 328 332 336 342 348 352 356 357 356 357 356 357 357 355 355
305 307 307 307 306 305 306 305 305 305 307 307 309 311 311 313 314 315 318 319 321 321 320 319 317 317 318 320 322 324 327 331 339 343 351 358 356 356 356 357 356 356 357 356
306 305 306 306 306 305 306 304 305 306 306 309 310 311 311 311 312 314 315 318 320 319 317 316 315 315 317 319 320 323 325 329 335 340 348 359 357 358 357 357 357 357 357 357
303 302 307 306 305 305 306 305 305 304 306 307 309 310 310 310 311 314 314 317 319 318 316 314 313 314 315 317 319 320 323 326 329 333 340 358 360 358 359 358 358 358 358 358
304 303 304 304 305 305 306 306 305 304 305 306 308 308 309 310 310 313 316 315 314 314 313 312 312 312 313 314 315 316 319 324 327 330 337 353 362 357 356 358 361 361 360 360
304 305 305 305 305 305 305 305 305 304 304 305 307 308 310 312 312 314 313 312 313 311 310 309 310 311 311 313 313 316 320 324 326 328 332 343 355 362 358 355 358 361 363 363
306 306 305 305 305 306 306 306 306 305 304 304 306 308 309 310 310 310 309 309 309 307 307 308 308 309 309 311 312 315 318 322 324 327 334 343 350 357 362 360 356 356 359 363
307 307 308 307 305 305 307 307 307 306 304 304 304 305 306 306 306 306 306 306 305 304 304 305 306 307 307 308 311 314 317 320 321 323 328 336 343 351 358 360 357 355 352 355
308 308 307 306 306 306 306 306 306 306 305 304 304 304 304 304 306 305 305 304 304 303 303 304 305 305 305 308 309 311 314 315 316 316 319 324 329 338 349 357 355 350 350 351
308 307 306 306 306 305 305 306 306 305 305 304 303 303 303 304 304 304 303 304 304 303 303 303 305 303 304 306 306 308 310 311 311 310 312 314 316 321 329 342 350 348 344 344
310 309 309 309 308 305 305 306 306 306 304 304 304 303 303 302 302 303 303 303 303 304 303 303 303 302 301 304 304 304 305 308 306 307 307 310 306 310 313 317 326 338 335 335
311 310 310 309 308 306 305 307 307 306 306 305 305 303 302 302 302 302 303 302 302 303 303 303 301 301 300 301 301 300 301 303 302 302 302 302 304 300 302 309 308 310 313 313
310 310 309 308 306 307 307 306 306 306 306 306 306 305 303 302 302 302 302 303 303 301 302 302 301 301 300 299 298 298 298 298 298 298 298 299 299 300 300 299 299 303 303 303
309 309 308 308 307 306 306 305 306 307 306 306 307 305 303 302 302 302 302 302 302 302 301 302 301 301 300 299 298 297 296 296 296 296 296 296 296 296 297 296 296 297 296 297
308 307 307 307 307 306 306 306 306 306 306 307 306 305 303 302 302 302 302 302 303 303 302 301 301 301 299 298 297 297 297 296 295 295 295 295 295 294 294 294 294 295 295 295
307 307 306 307 306 305 306 306 306 306 306 306 305 305 303 303 303 303 303 303 303 302 302 302 301 300 300 298 297 297 296 296 296 295 295 294 294 294 294 294 294 294 294 294
307 307 306 306 306 303 303 306 306 306 306 305 304 304 303 303 303 303 303 302 302 301 301 302 301 300 299 299 298 297 297 297 296 295 295 294 294 294 294 294 294 293 293 293
306 305 306 306 303 303 305 305 304 305 305 305 305 305 305 304 304 304 303 302 302 301 301 301 300 299 300 300 299 298 298 297 296 295 295 295 294 294 293 293 293 292 292 292
305 305 305 305 304 303 304 304 304 304 305 305 304 305 304 304 304 303 303 302 302 301 300 300 300 299 299 299 300 299 298 298 297 297 296 296 295 295 295 295 295 294 294 293
Wind_Speed
3 6 8 10 13 12 6 4 2 7 7 10 10 8 7 8 19 22 15 13 9 8 12 17 11 13 19 18 34 37 37 37 39 36 37 38 40 41 45 46 41 42 35 33
5 7 8 9 11 12 11 6 5 6 5 11 8 11 12 11 12 14 11 13 11 13 12 13 14 16 17 7 24 32 36 38 38 38 36 37 40 41 40 46 47 43 44 40
2 4 5 7 5 4 11 6 3 3 3 11 11 13 14 15 11 9 7 7 8 11 14 17 12 9 6 12 9 8 21 33 36 35 37 36 35 37 38 39 39 39 40 42
3 4 2 7 6 6 3 12 8 3 8 9 10 5 14 17 10 10 10 8 7 8 12 19 19 20 18 12 14 16 17 23 33 34 35 36 36 36 37 36 39 37 38 39
3 4 6 9 7 6 6 6 7 4 9 11 15 4 9 13 12 13 9 12 15 18 19 19 25 28 24 8 9 6 4 7 9 32 35 34 37 38 36 34 34 37 37 35
3 3 5 2 8 12 2 3 7 8 8 11 13 4 2 7 7 9 15 9 10 13 15 14 17 18 18 14 12 8 3 10 23 26 33 36 39 39 38 37 36 34 35 36
4 4 6 8 13 8 3 2 7 8 9 7 5 6 12 7 5 8 10 8 7 9 11 14 23 24 20 16 11 14 12 11 28 32 31 41 41 39 38 35 34 34 35 34
3 2 6 10 3 3 6 3 4 5 9 11 6 14 15 6 6 5 8 11 8 7 11 12 17 22 24 20 24 19 15 16 30 30 25 38 40 39 37 35 33 33 32 31
4 2 2 5 2 5 5 6 5 9 12 14 13 11 10 13 4 6 6 11 10 10 13 17 19 20 19 20 27 28 19 21 26 25 24 34 37 37 33 34 32 31 31 31
4 1 1 5 3 3 8 11 12 12 13 13 14 13 10 7 10 7 10 11 16 11 10 15 20 20 22 23 27 22 19 21 22 21 25 31 35 36 34 33 32 31 29 29
4 9 8 6 4 6 11 12 13 13 14 12 13 12 9 8 8 15 13 13 12 6 10 11 19 21 21 21 26 29 25 26 26 21 25 26 33 33 36 37 37 36 33 31
6 6 4 7 8 11 9 11 10 13 13 14 13 13 12 10 15 17 15 14 6 4 6 10 14 16 16 20 21 25 27 20 21 26 26 21 24 30 37 35 37 41 37 36
5 6 7 8 7 9 9 11 13 14 15 12 16 18 17 15 19 18 11 6 4 3 6 10 12 9 11 17 18 20 17 19 22 21 22 18 24 24 24 34 37 37 40 39
7 4 6 8 7 6 10 12 11 13 16 16 16 17 16 19 16 7 1 4 4 6 8 13 16 17 18 17 20 21 22 19 20 22 22 20 14 22 23 25 26 31 39 42
8 10 9 8 8 9 13 12 9 7 11 14 18 10 7 7 6 7 5 5 5 7 11 12 15 19 21 22 21 21 20 20 23 21 20 17 16 18 27 26 24 23 30 36
9 9 9 10 10 9 8 6 5 5 7 11 14 16 14 11 11 12 10 9 9 9 13 13 14 17 18 19 19 18 18 18 21 19 17 12 11 12 23 22 22 24 27 31
3 6 5 7 10 11 9 6 5 4 7 10 10 12 13 13 9 10 10 11 9 9 11 11 15 17 14 13 16 15 15 16 17 16 12 15 12 11 11 22 22 23 26 27
14 12 12 9 7 7 5 10 6 6 2 1 4 8 9 9 9 10 13 11 10 11 18 15 14 14 11 13 12 10 9 11 13 14 13 13 18 14 10 4 13 18 19 17
8 8 10 10 15 10 9 11 12 10 10 6 1 6 10 10 10 13 15 14 14 13 22 23 15 16 15 14 9 9 7 12 14 14 12 14 19 19 21 19 12 20 20 21
9 11 7 10 11 9 9 10 14 13 11 12 5 1 5 12 13 15 14 16 20 18 17 22 21 18 18 15 14 13 13 16 14 15 17 17 22 25 22 22 20 21 27 26
6 9 6 3 11 10 11 8 9 14 14 10 6 2 5 14 14 15 14 10 16 25 24 17 29 26 22 20 23 21 19 17 14 14 13 19 25 25 28 23 22 19 25 29
4 6 9 12 12 14 10 7 6 6 7 9 4 3 9 11 12 12 12 7 12 11 24 21 23 30 26 23 28 22 23 16 17 17 19 21 27 20 29 23 23 29 22 29
14 11 6 13 11 6 9 1 3 9 6 6 6 6 12 11 4 5 5 13 9 7 8 17 20 20 30 29 25 21 19 19 15 22 21 22 24 26 26 24 27 31 26 26
8 1 7 9 6 2 4 2 3 6 8 5 3 2 1 3 7 9 12 13 11 10 4 7 15 21 20 25 26 21 16 9 20 23 24 25 25 27 28 26 26 29 29 31
10 11 4 6 11 8 2 9 11 7 7 6 2 4 3 7 10 15 15 19 14 11 14 17 18 19 26 24 20 24 14 12 16 20 21 24 28 28 29 30 28 29 29 30
2 3 11 13 15 8 8 16 13 11 11 5 1 4 5 6 12 11 6 12 16 19 17 15 14 19 18 19 25 22 19 23 20 21 26 29 31 31 30 27 27 28 28 28
3 8 10 12 10 8 10 10 10 11 11 6 4 2 2 7 12 14 15 17 16 18 19 20 19 22 20 17 15 17 21 21 21 23 26 29 28 24 23 23 24 24 23 22
Wind_Direction
353 11 352 340 342 335 326 239 184 294 318 325 354 346 355 24 49 43 48 52 28 344 300 285 286 232 229 243 200 196 198 202 208 209 209 215 218 223 231 232 234 232 230 223
360 35 10 323 309 308 304 348 310 334 336 356 353 22 16 21 48 84 60 49 17 13 356 319 237 243 220 320 192 195 199 205 207 207 208 209 216 217 223 230 232 236 236 235
267 65 7 307 270 294 294 338 88 89 295 358 5 19 27 12 17 14 49 84 53 9 6 349 40 33 322 259 277 235 216 211 211 207 208 210 213 215 218 223 226 230 234 235
205 74 214 244 312 272 302 64 59 38 9 3 341 338 40 22 18 6 2 0 63 57 15 1 11 8 341 302 264 262 255 224 213 211 209 209 213 214 215 217 222 224 229 230
168 182 277 298 287 244 172 88 39 7 1 354 341 348 56 20 17 0 349 350 6 22 29 12 0 353 345 306 240 258 328 330 310 219 215 209 210 216 216 212 217 221 224 227
137 153 243 224 332 323 314 145 10 8 4 357 338 30 290 350 358 357 350 29 15 12 15 9 1 346 349 355 355 353 310 306 316 297 238 214 214 213 215 214 216 220 223 223
207 210 272 356 312 303 180 261 350 358 348 355 339 289 300 318 340 354 15 13 29 32 21 7 348 350 354 0 356 334 288 284 298 279 261 222 218 214 213 212 215 218 222 222
328 243 244 4 341 60 349 295 322 334 326 307 304 308 309 306 318 358 355 10 7 23 19 17 7 354 344 343 340 346 337 292 290 282 270 224 216 216 212 212 213 217 218 220
211 291 20 327 8 331 347 302 297 308 310 303 305 293 302 312 297 319 358 341 352 9 13 2 5 2 321 339 342 336 325 300 300 296 295 228 215 215 211 210 212 216 216 219
359 158 296 283 295 332 309 307 303 298 296 290 286 286 291 293 310 316 336 337 340 356 15 5 345 354 338 339 336 324 313 312 316 309 288 241 217 212 211 210 212 216 215 218
252 285 305 235 299 301 302 312 301 301 300 296 288 285 288 294 295 299 318 317 337 3 2 359 347 342 336 335 333 317 331 332 326 306 296 238 216 207 211 216 212 211 214 215
216 200 208 265 280 295 288 304 311 302 295 291 280 279 276 284 285 288 296 302 307 334 352 335 339 340 339 329 326 318 325 326 316 311 311 275 223 219 217 219 223 222 218 214
210 193 209 240 262 270 286 314 302 313 301 299 286 275 273 269 267 273 276 271 312 344 342 332 330 335 337 325 312 324 306 317 316 313 307 304 227 206 210 218 222 221 223 224
212 190 259 234 245 242 275 314 291 314 305 301 297 289 274 248 250 214 204 314 336 357 353 340 337 330 342 340 341 332 325 329 328 314 299 297 272 225 211 204 205 215 219 224
215 206 233 259 244 256 268 281 304 303 326 320 319 321 28 40 57 49 26 3 31 6 357 346 334 332 338 335 348 328 329 335 333 322 310 299 278 249 219 211 211 212 217 221
224 228 240 246 258 268 266 263 288 321 329 322 339 356 26 51 52 53 44 47 47 12 353 337 333 331 331 329 332 328 331 345 345 336 331 321 307 268 241 226 216 213 216 220
187 256 245 259 258 264 242 230 248 278 335 3 348 3 12 25 44 48 40 43 41 20 2 346 328 332 329 333 335 328 336 346 351 341 346 355 342 332 259 218 203 202 214 215
200 219 214 218 232 245 250 208 232 217 223 267 40 17 14 15 27 34 28 21 24 23 18 5 350 343 348 5 335 333 352 9 4 351 6 24 8 0 10 98 176 170 173 185
235 222 224 250 231 239 262 205 217 221 207 221 288 19 22 19 28 32 29 26 22 17 10 11 2 3 7 9 7 13 21 49 24 25 24 37 29 26 24 29 35 104 113 119
233 278 259 305 234 243 270 230 214 220 232 226 219 120 12 14 20 36 35 39 32 19 15 21 25 20 18 23 34 43 38 58 34 28 31 50 54 33 28 41 21 68 87 87
220 265 303 257 248 256 240 247 218 214 232 224 217 215 54 29 42 32 12 16 28 30 23 36 30 27 29 28 42 38 39 51 48 36 30 55 57 58 51 30 45 39 74 85
176 6 322 301 282 263 233 272 324 174 200 217 182 138 134 100 73 48 34 8 35 40 41 37 39 34 32 33 43 32 41 38 49 49 49 52 63 56 65 54 53 62 44 78
179 186 255 267 248 192 207 251 61 164 136 157 137 133 160 186 193 77 29 10 346 8 31 47 36 41 47 42 40 29 28 38 52 60 56 59 64 64 62 59 67 70 69 74
211 246 336 357 335 102 140 197 123 126 117 130 141 208 296 337 313 319 315 322 351 16 50 96 81 65 61 59 53 47 36 359 52 60 64 67 66 69 68 64 63 72 75 76
185 204 160 34 342 289 122 140 140 131 152 154 177 53 10 357 357 350 11 43 48 98 95 131 114 98 77 68 74 70 65 58 58 69 67 68 69 69 72 75 76 78 81 83
195 75 59 61 26 41 144 151 142 142 150 178 228 8 26 20 7 5 34 50 66 73 83 105 111 101 121 108 89 78 76 72 73 79 78 77 77 78 81 80 80 82 83 84
96 42 42 80 111 56 21 165 170 166 163 160 125 98 22 25 18 26 49 73 94 84 86 88 93 82 84 97 119 113 93 84 79 82 85 82 80 81 82 85 82 79 79 80